User: anonymous   Login
Location: Chiroubles
(46.1812°N, 4.6660°E)
Time: 06:45:36
(UTC+00:00)
Language:

Cosmos 1725 Rocket - Orbit

View from above orbital plane
View from above orbital plane
View from above satellite
View from above satellite

Ground track
Ground track

The orbit data is extracted from the following two-line orbital elements,

1 16494U 86005B   20299.93490677 +.00000075 +00000-0 +61320-4 0  9998
2 16494 082.9326 239.3045 0020791 049.8522 014.4714 13.76513828746429
Epoch (UTC): 25 October 2020 22:26:15
Eccentricity: 0.0020791
inclination: 82.9326°
perigee height: 961 km
apogee height: 991 km
right ascension of ascending node: 239.3045°
argument of perigee: 49.8522°
revolutions per day: 13.76513828
mean anomaly at epoch: 14.4714°
orbit number at epoch: 74642

The dashed part of the orbit path shows where the satellite is in the earth's shadow,  

DLR